Location: Newark
(49.2191°N, 12.6671°E)
Time: 12:50:02
(UTC+00:00)

Transit 4A - Pass Details

Date: 28 January 2020
Orbit: 872 x 973 km, 66.8° (Epoch: 22 February)

Event Time Altitude Azimuth Distance (km) Brightness Sun altitude
Rises 15:32:05 0° 309° (NW) 3,470 11.2 2.9°
Reaches altitude 10° 15:36:16 10° 280° (W) 2,530 11.0 2.3°
Maximum altitude 15:38:23 12° 259° (WSW) 2,384 11.6 2.0°
Drops below altitude 10° 15:40:30 10° 237° (WSW) 2,534 12.8 1.7°
Sets 15:44:43 0° 208° (SSW) 3,483 12.0 1.1°
